Location: Hartman Creek State Park
(44.3257°N, 89.2134°W)
Time: 22:35:22
(UTC-05:00)

Cosmos 2263 Rocket - Visible Passes

Search period start: 05 May 2016 00:00
Search period end: 15 May 2016 00:00
Orbit: 822 x 850 km, 71.0° (Epoch: 04 May)

Date Brightness Start Highest point End Pass type
(mag) Time Alt. Az. Time Alt. Az. Time Alt. Az.
05 May 4.4 00:25:30 10° WNW 00:27:43 12° W 00:27:57 12° W visible
05 May 4.0 20:39:29 10° N 20:43:15 18° NE 20:46:58 10° E visible
05 May 2.1 22:22:17 10° NNW 22:28:02 88° ENE 22:30:06 42° SSE visible
06 May 4.3 00:08:25 10° WNW 00:11:06 14° W 00:11:48 13° WSW visible
06 May 2.2 22:05:36 10° NNW 22:11:21 82° ENE 22:14:00 33° SSE visible
06 May 4.3 23:51:25 10° WNW 23:54:29 15° W 23:55:42 14° WSW visible
07 May 2.2 21:48:56 10° NNW 21:54:39 76° ENE 21:57:56 26° SE visible
07 May 4.2 23:34:28 10° WNW 23:37:52 16° W 23:39:38 14° WSW visible
08 May 2.3 21:32:15 10° NNW 21:37:58 71° ENE 21:41:53 21° SE visible
08 May 4.2 23:17:34 10° WNW 23:21:14 18° W 23:23:36 14° SW visible
09 May 2.3 21:15:35 10° NNW 21:21:16 66° ENE 21:25:54 15° SE visible
09 May 4.2 23:00:41 10° NW 23:04:37 19° W 23:07:37 13° SW visible
10 May 2.4 20:58:54 10° NNW 21:04:34 61° ENE 21:09:57 11° SE visible
10 May 4.1 22:43:50 10° NW 22:47:59 21° W 22:51:40 12° SW visible
11 May 2.5 20:42:14 10° NNW 20:47:52 56° ENE 20:53:25 10° SE visible
11 May 4.1 22:27:01 10° NW 22:31:21 23° W 22:35:40 10° SSW visible
12 May 4.0 22:10:11 10° NW 22:14:43 25° WSW 22:19:13 10° SSW visible
13 May 3.9 21:53:24 10° NW 21:58:04 27° WSW 22:02:43 10° SSW visible
14 May 3.9 21:36:36 10° NW 21:41:26 29° WSW 21:46:13 10° SSW visible
